Simultaneous Nadir Overpasses (SNOs) Predictions

Prediction of SNOs between GOES-16 and NOAA-19 Satellite Orbit:

Table of predicted SNOs for the next 14.0 days since TLE Epoch: 6/10/2023
Index Date Time (GOES-16) GOES-16 Lat,Lon NOAA-19 Lat,Lon Distance(km) Time Diff (sec)
1 06/10/2023 13:24:44 -0.03, -75.19 -0.59, -72.88 264.54 80
2 06/13/2023 01:47:30 0.03, -75.20 -0.53, -77.65 279.73 80
3 06/14/2023 01:32:47 0.03, -75.20 0.11, -74.71 55.69 80
4 06/15/2023 01:20:46 0.03, -75.21 0.81, -71.79 391.00 80
5 06/16/2023 13:55:35 -0.03, -75.24 0.97, -79.50 486.18 80
6 06/17/2023 13:43:34 -0.03, -75.25 0.25, -76.57 150.57 80
7 06/18/2023 13:28:51 -0.04, -75.26 -0.40, -73.64 185.19 80
8 06/21/2023 01:51:38 0.04, -75.29 -0.67, -78.42 356.95 80
9 06/22/2023 01:39:36 0.05, -75.31 -0.02, -75.48 20.91 80
10 06/23/2023 01:24:54 0.06, -75.33 0.69, -72.56 315.80 80
